Flag for Canada Weather past 2 weeks in Trois-Rivieres, Quebec, Canada

Now
31 °F

Chilly.


Feels Like: 23 °F
Forecast: 25 / 33 °F
Wind: 8 mph from Northeast

Location: Trois Rivieres

Current Time: Dec 17, 2014 at 8:12:13 PM

Latest Report: Dec 17, 2014 at 7:00 PM


Visibility: N/A

Pressure: 29.79 "Hg

Humidity: 100%

Dew point: 31 °F

Location of Trois-RivieresLocation

Historic Weather in Trois-Rivieres — Graph

°F

Trois-Rivieres temperature yesterday

Maximum temperature yesterday: 31 °F (at 1:00 PM)
Minimum temperature yesterday: 28 °F (at 5:00 AM)
Average temperature yesterday: 29 °F

Past Weeks' High & Low Weather Summary

 TemperatureHumidityPressure
High35 °F (Dec 11, 1:00 PM)100% (Dec 3, 9:00 AM)30.86 "Hg (Dec 3, 9:00 AM)
Low-1 °F (Dec 8, 6:00 AM)44% (Dec 7, 2:00 PM)29.60 "Hg (Dec 11, 12:00 PM)
Average24 °F88%30.17 "Hg
* Reported Dec 2 7:00 PM — Dec 17 7:00 PM, Trois-Rivieres, Weather by CustomWeather, © 2014

Note: Actual official high and low records may vary slightly from our data, if they occured in-between our weather recording intervals... More about our weather records

Advertising

Trois-Rivieres weather history for previous 24 hours

 ConditionsComfort  
Time TempWeatherWind HumidityBarometerVisibility
7:00 PM
Dec 17
31 °FChilly.8 mph100%29.79 "HgN/A
6:00 PM31 °FChilly.7 mph100%29.79 "HgN/A
5:00 PM31 °FChilly.8 mph100%29.79 "HgN/A
4:00 PM31 °FChilly.8 mph100%29.78 "HgN/A
3:00 PM31 °FChilly.8 mph100%29.79 "HgN/A
2:00 PM31 °FChilly.9 mph100%29.78 "HgN/A
1:00 PM31 °FChilly.8 mph98%29.80 "HgN/A
12:00 PM31 °FChilly.8 mph97%29.81 "HgN/A
11:00 AM31 °FChilly.8 mph98%29.83 "HgN/A
10:00 AM31 °FChilly.8 mph100%29.85 "HgN/A
9:00 AM31 °FChilly.8 mph100%29.86 "HgN/A
8:00 AM31 °FChilly.7 mph98%29.86 "HgN/A
7:00 AM31 °FChilly.7 mph98%29.86 "HgN/A
6:00 AM31 °FChilly.7 mph98%29.86 "HgN/A
5:00 AM30 °FChilly.7 mph99%29.86 "HgN/A
4:00 AM30 °FChilly.9 mph99%29.87 "HgN/A
3:00 AM30 °FChilly.7 mph100%29.90 "HgN/A
2:00 AM30 °FChilly.7 mph100%29.90 "HgN/A
1:00 AM30 °FChilly.7 mph100%29.92 "HgN/A
12:00 AM30 °FChilly.8 mph100%29.94 "HgN/A
11:00 PM
Dec 16
30 °FChilly.7 mph100%29.95 "HgN/A
10:00 PM30 °FChilly.8 mph100%29.96 "HgN/A
9:00 PM30 °FChilly.7 mph100%29.97 "HgN/A
8:00 PM29 °FChilly.8 mph100%29.98 "HgN/A
Weather by CustomWeather, © 2014

See weather overviewHow to use our weather pages